Location: Les Jeannots
(43.2262°N, 5.5774°E)
Time: 17:47:50
(UTC+00:00)

Lacrosse 5 rocket - Pass Details

Date: 05 July 2020
Orbit: 465 x 632 km, 57.0° (Epoch: 12 August)

Event Time Altitude Azimuth Distance (km) Brightness Sun altitude
Rises 21:14:19 0° 298° (WNW) 2,791 6.1 -15.8°
Reaches altitude 10° 21:17:56 10° 329° (NNW) 1,848 5.4 -16.2°
Maximum altitude 21:19:40 12° 353° (N) 1,685 4.7 -16.4°
Drops below altitude 10° 21:21:23 10° 18° (NNE) 1,804 4.5 -16.6°
Sets 21:24:49 0° 50° (NE) 2,649 4.9 -16.9°
